Weather History for KTOC - February, 2014

Change the Weather History Date:

Tuesday, February 4, 2014

  Actual Average Record
Temperature  
Mean Temperature 45 °F -  
Max Temperature 49 °F 54 °F 52 °F (2015)
Min Temperature 41 °F 32 °F 27 °F (2015)
Degree Days  
Heating Degree Days 20    
Moisture  
Dew Point 41 °F    
Average Humidity 84    
Maximum Humidity 99    
Minimum Humidity 74    
Precipitation  
Precipitation 0.00 in - - ()
Sea Level Pressure  
Sea Level Pressure 30.18 in    
Wind  
Wind Speed 6 mph (ENE)    
Max Wind Speed 12 mph    
Max Gust Speed 20 mph    
Visibility 8 miles    
Events Rain    
Averages and records for this station are not official NWS values.
T = Trace of Precipitation, MM = Missing Value Source: NWS Daily Summary

Daily Weather History Graph

Daily Weather History Graph

Search for Another Location

Airport or City:

Trip Planner

Search our weather history database for the weather conditions in past years. The results will help you decide how hot, cold, wet, or windy it might be!

Date:

Astronomy

Feb. 04, 2014 Rise Set
Actual Time 7:28 AM EST 6:05 PM EST
Civil Twilight 7:02 AM EST 6:32 PM EST
Nautical Twilight 6:32 AM EST 7:02 PM EST
Astronomical Twilight 6:03 AM EST 7:31 PM EST
Moon 10:21 AM EST (2/4) 11:42 PM EST (2/4)
Length of Visible Light 11h 29m
Length of Day
10h 36m
Waxing Crescent, 29% of the Moon is Illuminated
Feb 4
Waxing Crescent
Feb 6
First Quarter
Feb 14
Full
Feb 22
Last Quarter
Mar 1
New

Hourly Weather History & Observations

Time (EST) Temp. Windchill Dew Point Humidity Pressure Visibility Wind Dir Wind Speed Gust Speed Precip Events Conditions
12:15 AM 48.0 °F - 44.6 °F 88% 30.16 in 10.0 mi NE 4.6 mph - N/A   Clear
12:35 AM 48.2 °F - 43.7 °F 84% 30.16 in 10.0 mi NE 4.6 mph - N/A   Clear
12:55 AM 48.9 °F - 43.3 °F 81% 30.17 in 10.0 mi NE 4.6 mph - N/A   Clear
1:15 AM 49.1 °F - 42.8 °F 79% 30.16 in 10.0 mi NE 4.6 mph - N/A   Clear
1:35 AM 48.7 °F - 42.3 °F 78% 30.16 in 10.0 mi NE 3.5 mph - N/A   Clear
1:55 AM 48.4 °F - 41.9 °F 78% 30.16 in 10.0 mi NE 4.6 mph - N/A   Clear
2:15 AM 48.6 °F - 41.7 °F 77% 30.17 in 10.0 mi NE 4.6 mph - N/A   Clear
2:35 AM 48.2 °F - 41.2 °F 77% 30.18 in 10.0 mi NE 3.5 mph - N/A   Clear
2:55 AM 47.7 °F - 41.2 °F 78% 30.18 in 10.0 mi ENE 5.8 mph - N/A   Clear
3:15 AM 47.5 °F - 41.0 °F 78% 30.18 in 10.0 mi ENE 6.9 mph - N/A   Clear
3:35 AM 47.1 °F - 40.8 °F 79% 30.18 in 10.0 mi ENE 5.8 mph - N/A   Clear
3:55 AM 46.9 °F - 41.0 °F 80% 30.19 in 10.0 mi ENE 6.9 mph - N/A   Clear
4:15 AM 46.4 °F 42.9 °F 40.6 °F 80% 30.19 in 10.0 mi NE 6.9 mph - N/A   Clear
4:35 AM 46.4 °F 42.4 °F 40.6 °F 80% 30.19 in 10.0 mi ENE 8.1 mph - N/A   Clear
4:55 AM 45.9 °F 42.3 °F 40.5 °F 81% 30.19 in 10.0 mi ENE 6.9 mph - N/A   Clear
5:15 AM 45.9 °F 41.7 °F 40.5 °F 81% 30.20 in 10.0 mi ENE 8.1 mph - N/A   Scattered Clouds
5:35 AM 46.0 °F 41.9 °F 40.8 °F 82% 30.19 in 10.0 mi ENE 8.1 mph - N/A   Mostly Cloudy
5:55 AM 46.0 °F 42.5 °F 40.5 °F 81% 30.20 in 10.0 mi ENE 6.9 mph - N/A   Overcast
6:15 AM 46.0 °F 44.8 °F 40.6 °F 81% 30.21 in 10.0 mi ENE 3.5 mph - N/A   Overcast
6:35 AM 46.0 °F 43.1 °F 40.5 °F 81% 30.22 in 10.0 mi ENE 5.8 mph - N/A   Overcast
6:55 AM 46.4 °F 44.3 °F 40.6 °F 80% 30.22 in 10.0 mi ENE 4.6 mph - N/A   Overcast
7:15 AM 46.4 °F 44.3 °F 40.5 °F 80% 30.23 in 10.0 mi ENE 4.6 mph - N/A   Overcast
7:35 AM 46.6 °F - 40.3 °F 79% 30.24 in 10.0 mi ENE 3.5 mph - N/A   Overcast
7:55 AM 46.6 °F - 40.6 °F 80% 30.24 in 10.0 mi ENE 4.6 mph - N/A   Overcast
8:15 AM 46.8 °F - 40.3 °F 78% 30.25 in 10.0 mi ENE 6.9 mph - N/A   Overcast
8:35 AM 46.9 °F - 39.6 °F 76% 30.25 in 10.0 mi ENE 6.9 mph - N/A   Overcast
8:55 AM 47.3 °F - 39.4 °F 74% 30.27 in 10.0 mi ENE 11.5 mph 18.4 mph N/A   Overcast
9:15 AM 46.9 °F - 39.2 °F 74% 30.27 in 10.0 mi ENE 10.4 mph 17.3 mph N/A   Overcast
9:35 AM 47.1 °F - 39.4 °F 74% 30.28 in 10.0 mi ENE 8.1 mph 17.3 mph N/A   Overcast
9:55 AM 47.3 °F - 39.4 °F 74% 30.28 in 10.0 mi East 9.2 mph - N/A   Overcast
10:15 AM 47.3 °F - 39.9 °F 76% 30.28 in 10.0 mi East 4.6 mph - N/A   Overcast
10:35 AM 46.8 °F - 39.9 °F 77% 30.28 in 10.0 mi ENE 8.1 mph 17.3 mph N/A   Overcast
10:55 AM 46.8 °F - 39.7 °F 77% 30.27 in 10.0 mi ENE 9.2 mph 19.6 mph N/A   Overcast
11:15 AM 46.9 °F - 39.7 °F 76% 30.25 in 10.0 mi East 9.2 mph - N/A   Overcast
11:35 AM 47.3 °F - 40.1 °F 76% 30.25 in 10.0 mi ENE 9.2 mph - N/A   Overcast
11:55 AM 47.3 °F - 40.1 °F 76% 30.24 in 10.0 mi East 6.9 mph - N/A   Overcast
12:15 PM 47.3 °F - 40.1 °F 76% 30.24 in 10.0 mi ESE 6.9 mph - N/A   Overcast
12:35 PM 46.9 °F - 40.3 °F 78% 30.23 in 10.0 mi East 8.1 mph - N/A   Overcast
12:55 PM 46.8 °F - 40.3 °F 78% 30.21 in 10.0 mi East 8.1 mph - N/A   Overcast
1:15 PM 46.9 °F - 40.3 °F 78% 30.20 in 10.0 mi East 5.8 mph - N/A   Overcast
1:35 PM 46.8 °F - 40.1 °F 78% 30.19 in 10.0 mi East 8.1 mph - N/A   Overcast
1:55 PM 46.6 °F - 40.1 °F 78% 30.18 in 10.0 mi East 4.6 mph - N/A   Overcast
2:15 PM 46.4 °F 42.4 °F 40.1 °F 79% 30.17 in 10.0 mi East 8.1 mph - N/A   Overcast
2:35 PM 46.4 °F 42.4 °F 40.1 °F 79% 30.17 in 10.0 mi East 8.1 mph - N/A   Overcast
2:55 PM 46.0 °F 42.5 °F 40.3 °F 80% 30.17 in 10.0 mi East 6.9 mph - N/A   Light Drizzle
3:15 PM 46.2 °F 44.1 °F 40.6 °F 81% 30.16 in 10.0 mi East 4.6 mph - N/A   Overcast
3:35 PM 45.7 °F 43.4 °F 41.0 °F 84% 30.16 in 10.0 mi East 4.6 mph - N/A   Overcast
3:55 PM 45.0 °F 41.2 °F 41.4 °F 87% 30.16 in 10.0 mi ENE 6.9 mph - N/A   Overcast
4:15 PM 44.8 °F 41.0 °F 41.0 °F 87% 30.15 in 10.0 mi East 6.9 mph - N/A   Overcast
4:35 PM 44.6 °F 42.2 °F 41.2 °F 88% 30.14 in 10.0 mi East 4.6 mph - N/A   Overcast
4:55 PM 44.2 °F 41.8 °F 41.0 °F 88% 30.14 in 10.0 mi East 4.6 mph - N/A   Overcast
5:15 PM 43.9 °F 40.5 °F 41.0 °F 90% 30.14 in 10.0 mi ENE 5.8 mph - N/A Rain Light Rain
5:35 PM 43.7 °F 39.7 °F 41.4 °F 91% 30.13 in 10.0 mi East 6.9 mph - N/A   Overcast
5:55 PM 43.2 °F 40.5 °F 41.2 °F 93% 30.12 in 7.0 mi East 4.6 mph - N/A Rain Heavy Rain
6:15 PM 42.8 °F 41.1 °F 41.4 °F 95% 30.14 in 5.0 mi East 3.5 mph - N/A Rain Heavy Rain
6:35 PM 42.4 °F 38.1 °F 41.4 °F 96% 30.13 in 5.0 mi ENE 6.9 mph - N/A   Drizzle
7:15 PM 41.9 °F 38.2 °F 41.2 °F 97% 30.13 in 4.0 mi East 5.8 mph - N/A Rain Rain
7:35 PM 41.4 °F 36.2 °F 40.8 °F 98% 30.13 in 4.0 mi East 8.1 mph - N/A   Overcast
7:55 PM 41.4 °F 38.4 °F 41.0 °F 99% 30.13 in 1.5 mi East 4.6 mph - N/A   Overcast
8:15 PM 41.4 °F 36.2 °F 41.0 °F 99% 30.13 in 2.0 mi ENE 8.1 mph - N/A   Overcast
8:35 PM 41.2 °F 36.6 °F 40.6 °F 98% 30.13 in 2.0 mi East 6.9 mph - N/A   Overcast
8:55 PM 41.0 °F 37.1 °F 40.5 °F 98% 30.12 in 2.5 mi ENE 5.8 mph - N/A   Overcast
9:15 PM 41.0 °F 37.1 °F 40.5 °F 98% 30.12 in 2.0 mi ENE 5.8 mph - N/A   Overcast
9:35 PM 41.0 °F 38.0 °F 40.5 °F 98% 30.11 in 1.8 mi East 4.6 mph - N/A   Light Drizzle
9:55 PM 41.0 °F 38.0 °F 40.5 °F 98% 30.11 in 1.8 mi East 4.6 mph - N/A   Light Drizzle
10:15 PM 41.0 °F 38.0 °F 40.8 °F 99% 30.10 in 1.8 mi East 4.6 mph - N/A Rain Light Rain
10:35 PM 41.2 °F 38.2 °F 41.0 °F 99% 30.09 in 1.5 mi East 4.6 mph - N/A   Overcast
10:55 PM 41.0 °F 39.0 °F 40.6 °F 99% 30.09 in 1.5 mi East 3.5 mph - N/A   Overcast
11:15 PM 41.2 °F 37.3 °F 41.0 °F 99% 30.08 in 1.5 mi East 5.8 mph - N/A   Overcast
11:35 PM 41.2 °F 38.2 °F 41.0 °F 99% 30.07 in 1.5 mi ENE 4.6 mph - N/A   Overcast
11:55 PM 41.2 °F 36.6 °F 41.0 °F 99% 30.07 in 1.8 mi ENE 6.9 mph - N/A   Light Drizzle